Home   Weather   Fairfield Point   Past weeks
Flag for USA

Past Weather in Fairfield Point, Georgia, USA — Yesterday and Last 2 Weeks

Now
45 °F

Chilly.


Feels Like: 45 °F
Forecast: 74 / 45 °F
Wind: No wind

Location: Bellair-Meadowbrook Terrace - MADIS Station

Current Time: Dec 6, 2019 at 3:03:49 am

Latest Report: Dec 6, 2019 at 2:18 am


Visibility: N/A

Pressure: 30.17 "Hg

Humidity: 94%

Dew Point: 43 °F

Location of Fairfield PointLocation

Past Weather in Fairfield Point — Graph

°F

Fairfield Point Temperature Yesterday

Maximum temperature yesterday: 67 °F (at 2:18 pm)
Minimum temperature yesterday: 45 °F (at 7:18 am)
Average temperature yesterday: 54 °F

High & Low Weather Summary for the Past Weeks

 TemperatureHumidityPressure
High82 °F (Dec 1, 2:03 pm)97% (Nov 23, 7:18 am)30.25 "Hg (Nov 23, 7:18 am)
Low36 °F (Dec 3, 7:03 am)25% (Nov 28, 2:03 pm)29.72 "Hg (Dec 1, 3:48 pm)
Average59 °F78%30.00 "Hg
* Reported Nov 21 1:03 am — Dec 6 1:03 am, Fairfield Point. Weather by CustomWeather, © 2019

Note: Actual official high and low records may vary slightly from our data, if they occured in-between our weather recording intervals... More about our weather records

Fairfield Point Weather History for the Previous 24 Hours

Scroll right to see more
 ConditionsComfort  
Time TempWeatherWind HumidityBarometerVisibility
1:03 am
Fri, Dec 6
45 °FChilly.No wind94%30.17 "HgN/A
12:33 am46 °FChilly.No wind94%30.17 "HgN/A
12:18 am46 °FChilly.No wind94%30.17 "HgN/A
12:03 am46 °FChilly.No wind94%30.17 "HgN/A
11:33 pm
Thu, Dec 5
46 °FChilly.No wind93%30.17 "HgN/A
11:18 pm47 °FChilly.No wind93%30.16 "HgN/A
10:48 pm47 °FChilly.No wind93%30.17 "HgN/A
10:33 pm48 °FChilly.No wind92%30.16 "HgN/A
10:18 pm48 °FChilly.No wind92%30.17 "HgN/A
9:48 pm49 °FChilly.No wind91%30.16 "HgN/A
9:33 pm49 °FChilly.No wind90%30.16 "HgN/A
9:03 pm50 °FQuite cool.No wind87%30.15 "HgN/A
8:48 pm51 °FQuite cool.No wind86%30.15 "HgN/A
8:18 pm51 °FQuite cool.No wind85%30.14 "HgN/A
8:03 pm51 °FQuite cool.No wind84%30.14 "HgN/A
7:33 pm52 °FQuite cool.No wind81%30.14 "HgN/A
7:18 pm52 °FQuite cool.No wind79%30.14 "HgN/A
6:48 pm54 °FQuite cool.No wind74%30.13 "HgN/A
6:33 pm55 °FQuite cool.No wind72%30.13 "HgN/A
6:18 pm56 °FCool.No wind69%30.12 "HgN/A
6:03 pm56 °FCool.No wind66%30.11 "HgN/A
5:33 pm58 °FCool.No wind63%30.11 "HgN/A
5:18 pm59 °FCool.No windN/A30.10 "HgN/A
4:48 pm62 °FCool.1 mph53%30.09 "HgN/A
4:33 pm63 °FCool.1 mph50%30.09 "HgN/A
4:18 pm63 °FCool.3 mphN/A30.08 "HgN/A
3:03 pm66 °FRefreshingly cool.1 mph41%30.06 "HgN/A
2:18 pm67 °FRefreshingly cool.1 mph38%30.06 "HgN/A
2:03 pm66 °FRefreshingly cool.1 mph39%30.06 "HgN/A
1:18 pm66 °FRefreshingly cool.No wind39%30.07 "HgN/A
1:03 pm66 °FRefreshingly cool.1 mph41%30.07 "HgN/A
12:33 pm65 °FRefreshingly cool.1 mph40%30.08 "HgN/A
12:03 pm64 °FCool.No wind42%30.09 "HgN/A
11:48 am65 °FRefreshingly cool.No wind44%30.09 "HgN/A
11:18 am63 °FCool.2 mph48%30.11 "HgN/A
11:03 am63 °FCool.4 mph45%30.11 "HgN/A
10:33 am60 °FCool.2 mph49%30.11 "HgN/A
10:18 am58 °FCool.4 mph51%30.11 "HgN/A
10:03 am57 °FCool.3 mph54%30.11 "HgN/A
9:33 am55 °FQuite cool.5 mph59%30.10 "HgN/A
9:18 am54 °FQuite cool.3 mph63%30.09 "HgN/A
8:48 am50 °FQuite cool.2 mph72%30.08 "HgN/A
8:33 am48 °FChilly.1 mph77%30.07 "HgN/A
8:03 am45 °FChilly.No wind85%30.06 "HgN/A
7:18 am45 °FChilly.No wind82%30.05 "HgN/A
6:18 am46 °FChilly.No wind80%30.02 "HgN/A
6:03 am47 °FChilly.1 mph79%30.02 "HgN/A
5:33 am48 °FChilly.1 mph78%30.01 "HgN/A
5:18 am47 °FChilly.2 mph79%30.01 "HgN/A
5:03 am47 °FChilly.1 mph80%30.00 "HgN/A
4:18 am47 °FChilly.1 mph80%29.98 "HgN/A
3:48 am48 °FChilly.1 mph81%29.99 "HgN/A
3:33 am48 °FChilly.1 mph82%29.99 "HgN/A
3:03 am47 °FChilly.No wind84%29.98 "HgN/A
Weather by CustomWeather, © 2019

See weather overview

Advertising